TimeCDT,TemperatureF,Dew PointF,Humidity,Sea Level PressureIn,VisibilityMPH,Wind Direction,Wind SpeedMPH,Gust SpeedMPH,PrecipitationIn,Events,Conditions,WindDirDegrees,DateUTC
12:15 AM,82.4,64.4,54,29.95,10.0,Calm,Calm,-,N/A,,Clear,0,2013-07-24 05:15:00
12:35 AM,82.4,66.2,58,29.95,10.0,SSE,6.9,-,N/A,,Clear,150,2013-07-24 05:35:00
12:55 AM,82.4,68.0,62,29.96,10.0,South,5.8,-,N/A,,Clear,170,2013-07-24 05:55:00
1:15 AM,82.4,69.8,66,29.96,10.0,SSE,3.5,-,N/A,,Clear,160,2013-07-24 06:15:00
1:35 AM,80.6,71.6,74,29.96,10.0,Calm,Calm,-,N/A,,Clear,0,2013-07-24 06:35:00
1:55 AM,80.6,71.6,74,29.96,10.0,Calm,Calm,-,N/A,,Clear,0,2013-07-24 06:55:00
2:15 AM,80.6,71.6,74,29.96,10.0,Calm,Calm,-,N/A,,Clear,0,2013-07-24 07:15:00
2:35 AM,80.6,71.6,74,29.97,10.0,Calm,Calm,-,N/A,,Clear,0,2013-07-24 07:35:00
2:55 AM,80.6,73.4,79,29.98,10.0,Calm,Calm,-,N/A,,Clear,0,2013-07-24 07:55:00
3:15 AM,80.6,71.6,74,29.98,10.0,Calm,Calm,-,N/A,,Clear,0,2013-07-24 08:15:00
3:35 AM,78.8,71.6,78,29.98,10.0,Calm,Calm,-,N/A,,Clear,0,2013-07-24 08:35:00
3:55 AM,78.8,71.6,78,29.98,10.0,Calm,Calm,-,N/A,,Clear,0,2013-07-24 08:55:00
4:15 AM,78.8,71.6,78,29.99,10.0,Calm,Calm,-,N/A,,Clear,0,2013-07-24 09:15:00
4:35 AM,78.8,71.6,78,29.98,10.0,Calm,Calm,-,N/A,,Clear,0,2013-07-24 09:35:00
4:55 AM,77.0,71.6,83,29.98,10.0,Calm,Calm,-,N/A,,Clear,0,2013-07-24 09:55:00
5:15 AM,77.0,71.6,83,29.98,10.0,Calm,Calm,-,N/A,,Clear,0,2013-07-24 10:15:00
5:35 AM,75.2,71.6,89,29.99,10.0,Calm,Calm,-,N/A,,Clear,0,2013-07-24 10:35:00
5:55 AM,75.2,71.6,89,30.00,10.0,Calm,Calm,-,N/A,,Partly Cloudy,0,2013-07-24 10:55:00
6:15 AM,75.2,71.6,89,30.01,10.0,Calm,Calm,-,N/A,,Partly Cloudy,0,2013-07-24 11:15:00
6:35 AM,75.2,71.6,89,30.01,10.0,Calm,Calm,-,N/A,,Clear,0,2013-07-24 11:35:00
6:55 AM,75.2,71.6,89,30.00,8.0,Calm,Calm,-,N/A,,Clear,0,2013-07-24 11:55:00
7:15 AM,75.2,71.6,89,30.01,8.0,Calm,Calm,-,N/A,,Clear,0,2013-07-24 12:15:00
7:35 AM,77.0,71.6,83,30.02,8.0,Calm,Calm,-,N/A,,Clear,0,2013-07-24 12:35:00
7:55 AM,77.0,73.4,89,30.01,9.0,Calm,Calm,-,N/A,,Clear,0,2013-07-24 12:55:00
8:15 AM,78.8,71.6,78,30.01,9.0,Calm,Calm,-,N/A,,Scattered Clouds,0,2013-07-24 13:15:00
8:35 AM,78.8,71.6,78,30.00,9.0,Calm,Calm,-,N/A,,Partly Cloudy,0,2013-07-24 13:35:00
8:55 AM,80.6,71.6,74,30.01,9.0,Calm,Calm,-,N/A,,Partly Cloudy,0,2013-07-24 13:55:00
9:15 AM,80.6,71.6,74,30.01,9.0,Calm,Calm,-,N/A,,Clear,0,2013-07-24 14:15:00
9:35 AM,82.4,71.6,70,30.01,10.0,Calm,Calm,-,N/A,,Clear,0,2013-07-24 14:35:00
9:55 AM,84.2,71.6,66,30.02,10.0,Calm,Calm,-,N/A,,Clear,0,2013-07-24 14:55:00
10:15 AM,84.2,71.6,66,30.03,10.0,Calm,Calm,-,N/A,,Clear,0,2013-07-24 15:15:00
10:35 AM,87.8,73.4,62,30.04,9.0,South,3.5,-,N/A,,Clear,180,2013-07-24 15:35:00
10:55 AM,87.8,71.6,58,30.05,10.0,Calm,Calm,-,N/A,,Clear,0,2013-07-24 15:55:00
11:15 AM,87.8,71.6,58,30.05,10.0,Calm,Calm,-,N/A,,Clear,0,2013-07-24 16:15:00
11:35 AM,89.6,73.4,59,30.05,10.0,Calm,Calm,-,N/A,,Clear,0,2013-07-24 16:35:00
11:55 AM,91.4,73.4,55,30.03,10.0,Calm,Calm,-,N/A,,Clear,0,2013-07-24 16:55:00
12:15 PM,91.4,71.6,52,30.03,10.0,Calm,Calm,-,N/A,,Clear,0,2013-07-24 17:15:00
12:35 PM,93.2,71.6,49,30.03,10.0,Calm,Calm,-,N/A,,Clear,0,2013-07-24 17:35:00
12:55 PM,93.2,71.6,49,30.03,10.0,SSE,3.5,-,N/A,,Clear,160,2013-07-24 17:55:00
1:15 PM,93.2,73.4,52,30.02,9.0,Calm,Calm,-,N/A,,Clear,0,2013-07-24 18:15:00
1:35 PM,93.2,71.6,49,30.01,10.0,Calm,Calm,-,N/A,,Clear,0,2013-07-24 18:35:00
1:55 PM,95.0,73.4,49,30.00,10.0,Calm,Calm,-,N/A,,Clear,0,2013-07-24 18:55:00
2:15 PM,95.0,71.6,47,29.98,8.0,Calm,Calm,-,N/A,,Clear,0,2013-07-24 19:15:00
2:35 PM,96.8,71.6,44,29.97,10.0,South,6.9,-,N/A,,Partly Cloudy,190,2013-07-24 19:35:00
2:55 PM,96.8,68.0,39,29.97,10.0,SE,6.9,-,N/A,,Partly Cloudy,140,2013-07-24 19:55:00
3:15 PM,96.8,69.8,41,29.96,10.0,Calm,Calm,-,N/A,,Clear,0,2013-07-24 20:15:00
3:35 PM,96.8,66.2,37,29.96,10.0,SSE,9.2,-,N/A,,Clear,150,2013-07-24 20:35:00
3:55 PM,96.8,66.2,37,29.95,10.0,South,3.5,-,N/A,,Clear,180,2013-07-24 20:55:00
4:15 PM,98.6,66.2,35,29.94,10.0,East,5.8,-,N/A,,Clear,90,2013-07-24 21:15:00
4:35 PM,98.6,66.2,35,29.94,10.0,ESE,6.9,-,N/A,,Clear,120,2013-07-24 21:35:00
4:55 PM,96.8,69.8,41,29.93,10.0,SE,6.9,-,N/A,,Clear,140,2013-07-24 21:55:00
5:15 PM,96.8,69.8,41,29.93,10.0,ESE,9.2,-,N/A,,Clear,120,2013-07-24 22:15:00
5:35 PM,96.8,69.8,41,29.93,10.0,SE,6.9,-,N/A,,Clear,130,2013-07-24 22:35:00
5:55 PM,96.8,66.2,37,29.93,10.0,SE,6.9,-,N/A,,Clear,140,2013-07-24 22:55:00
6:15 PM,96.8,69.8,41,29.93,10.0,SE,8.1,-,N/A,,Clear,130,2013-07-24 23:15:00
6:35 PM,96.8,69.8,41,29.93,10.0,SE,9.2,-,N/A,,Clear,130,2013-07-24 23:35:00
6:55 PM,95.0,69.8,44,29.93,10.0,ESE,9.2,-,N/A,,Clear,110,2013-07-24 23:55:00
7:15 PM,93.2,68.0,44,29.93,10.0,ESE,5.8,-,N/A,,Clear,110,2013-07-25 00:15:00
7:35 PM,93.2,68.0,44,29.94,10.0,ESE,6.9,-,N/A,,Clear,110,2013-07-25 00:35:00
7:55 PM,91.4,69.8,49,29.95,10.0,ESE,6.9,-,N/A,,Clear,110,2013-07-25 00:55:00
8:15 PM,89.6,69.8,52,29.95,10.0,ESE,3.5,-,N/A,,Clear,110,2013-07-25 01:15:00
8:35 PM,89.6,69.8,52,29.96,10.0,East,4.6,-,N/A,,Clear,100,2013-07-25 01:35:00
8:55 PM,87.8,69.8,55,29.96,10.0,Calm,Calm,-,N/A,,Clear,0,2013-07-25 01:55:00
9:15 PM,86.0,69.8,58,29.96,10.0,Calm,Calm,-,N/A,,Clear,0,2013-07-25 02:15:00
9:35 PM,84.2,69.8,62,29.97,10.0,Calm,Calm,-,N/A,,Clear,0,2013-07-25 02:35:00
9:55 PM,82.4,69.8,66,29.98,10.0,Calm,Calm,-,N/A,,Clear,0,2013-07-25 02:55:00
10:15 PM,82.4,69.8,66,29.98,10.0,Calm,Calm,-,N/A,,Clear,0,2013-07-25 03:15:00
10:35 PM,82.4,69.8,66,29.99,10.0,Calm,Calm,-,N/A,,Clear,0,2013-07-25 03:35:00
10:55 PM,80.6,69.8,70,29.99,10.0,Calm,Calm,-,N/A,,Clear,0,2013-07-25 03:55:00
11:15 PM,80.6,69.8,70,30.00,10.0,Calm,Calm,-,N/A,,Clear,0,2013-07-25 04:15:00
11:35 PM,80.6,69.8,70,30.00,10.0,Calm,Calm,-,N/A,,Clear,0,2013-07-25 04:35:00
11:55 PM,80.6,69.8,70,30.00,10.0,Calm,Calm,-,N/A,,Clear,0,2013-07-25 04:55:00